Location: Caltech
(34.1382°N, 118.1253°W)
Time: 05:21:57
(UTC-07:00)

Cosmos 2360 Rocket - Visible Passes

Search period start: 05 May 2016 00:00
Search period end: 15 May 2016 00:00
Orbit: 835 x 844 km, 71.0° (Epoch: 04 May)

Date Brightness Start Highest point End Pass type
(mag) Time Alt. Az. Time Alt. Az. Time Alt. Az.
05 May 3.9 21:29:29 16° ENE 21:29:29 16° ENE 21:31:16 10° NE visible
05 May 3.2 23:11:10 42° NW 23:11:10 42° NW 23:16:07 10° N visible
06 May 3.7 21:12:55 18° E 21:12:55 18° E 21:15:27 10° NE visible
06 May 3.0 22:54:35 45° W 22:55:05 46° WNW 23:00:30 10° N visible
07 May 3.5 20:56:00 18° E 20:56:00 18° E 20:59:37 10° ENE visible
07 May 2.9 22:37:38 37° WSW 22:39:25 49° WNW 22:44:53 10° N visible
08 May 3.6 20:38:33 15° ESE 20:40:17 17° E 20:43:45 10° ENE visible
08 May 2.8 22:20:07 21° SW 22:23:44 53° WNW 22:29:15 10° N visible
09 May 3.7 20:21:28 10° SE 20:24:40 16° E 20:27:51 10° ENE visible
09 May 2.7 22:02:33 10° SW 22:08:05 57° WNW 22:13:37 10° NNE visible
10 May 3.7 20:06:09 10° SE 20:09:02 14° E 20:11:55 10° ENE visible
10 May 2.6 21:46:51 10° SSW 21:52:24 61° WNW 21:57:59 10° NNE visible
11 May 2.5 21:31:09 10° SSW 21:36:44 66° WNW 21:42:20 10° NNE visible
12 May 2.4 21:15:28 10° SSW 21:21:04 71° WNW 21:26:42 10° NNE visible
13 May 2.4 20:59:47 10° SSW 21:05:24 76° WNW 21:11:03 10° NNE visible
14 May 2.3 20:44:07 10° SSW 20:49:45 81° WNW 20:55:24 10° NNE visible
14 May 5.5 22:34:14 10° NW 22:34:36 10° NW 22:34:56 10° NW visible
